Regional Weather Roundup
Issued by NWS Jackson, KY

Home | Current Version | Previous Version | Graphics & Text | Print | Product List | Glossary On
Versions: 1 2 3 4 5 6 7 8 9 10 11 12 13 14 15 16 17 18 19 20 21 22 23 24 25 26 27 28 29 30 31 32 33 34 35 36 37 38 39 40 41 42 43 44 45 46 47 48 49 50
000
ASUS43 KJKL 292310
RWRJKL

EAST KENTUCKY HOURLY WEATHER ROUNDUP
NATIONAL WEATHER SERVICE JACKSON KY
700 PM EDT SAT AUG 29 2015

NOTE: "FAIR" INDICATES FEW OR NO CLOUDS BELOW 12,000 FEET WITH
NO SIGNIFICANT WEATHER AND/OR OBSTRUCTIONS TO VISIBILITY.

* THESE REPORTS ARE NOT UNDER NWS QUALITY CONTROL AND MAY NOT
  REPORT WEATHER SUCH AS PRECIPITATION AND FOG.

KYZ079-080-083-085-087-088-110-112-115-119-120-300000
...EASTERN KENTUCKY...

CITY           SKY/WX    TMP DP  RH WIND       PRES   REMARKS
JACKSON        SUNNY     80  66  62 CALM      30.12S
LONDON         MOSUNNY   82  64  54 E3        30.12R
SOMERSET*      MOSUNNY   81  64  57 CALM      30.10S
MONTICELLO*    PTSUNNY   82  70  67 S3        30.13R
WILLIAMSBURG*  SUNNY     81  64  57 S5        30.12
MIDDLESBORO*   SUNNY     81  65  56 SW3       30.12R
HAZARD APT*    CLEAR     82  64  54 S3        30.12S
BLACK MTN*       N/A     64  61  88 SW2         N/A
PIKEVILLE APT* SUNNY     79  64  61 CALM      30.13F
BIG SANDY*     CLEAR     82  66  59 SE3       30.12S
MOREHEAD APT*  CLEAR     81  68  65 CALM      30.11R
$$

KYZ035-036-041-042-044-050-067-078-099-300000
...CENTRAL KENTUCKY...

CITY           SKY/WX    TMP DP  RH WIND       PRES   REMARKS
MT STERLING*   CLOUDY   N/A N/A N/A N6        30.11R
FLEMING/MASON* CLOUDY    82  68  61 CALM      30.09S
DANVILLE*      PTSUNNY   79  68  69 S5        30.10S
RICHMOND*      PTSUNNY   81  66  61 SE5       30.09S
LEXINGTON      MOSUNNY   79  68  69 SE6       30.08S
FRANKFORT      SUNNY     83  67  58 SE7       30.06S
$$

KYZ091>093-OHZ055-061-077-WVZ005-015-034-035-042-300000
...SOUTHERN OHIO/WEST VIRGINIA...

CITY           SKY/WX    TMP DP  RH WIND       PRES   REMARKS
COVINGTON      PTSUNNY   77  69  76 S5        30.06S
COLUMBUS       CLOUDY    81  61  50 SW12      30.06R
DAYTON         PTSUNNY   78  64  61 SE9       30.06F
WILMINGTON     CLOUDY    74  66  76 N5        30.07F
HUNTINGTON     SUNNY     82  65  56 S7        30.08S
CHARLESTON     MOSUNNY   82  64  54 SE8       30.09F
PINEVILLE*     SUNNY     72  68  88 MISG      30.20F
BECKLEY        MOSUNNY   76  59  55 SW3       30.20S
BLUEFIELD      PTSUNNY   76  59  55 W5        30.23S
$$

VAZ002-007-008-TNZ017-027-036-066-071-300000
...SOUTHWEST VIRGINIA/EAST TENNESSEE...

CITY           SKY/WX    TMP DP  RH WIND       PRES   REMARKS
WISE*          MOSUNNY   77  59  53 S5        30.22S
JONESVILLE*    PTCLDY    81  41  24 SE3       30.15S
ABINGDON*      CLOUDY    79  61  53 SE5       30.18S
BRISTOL        PTSUNNY   79  64  60 CALM      30.14F
KNOXVILLE      CLOUDY    82  68  62 N7        30.10R
OAK RIDGE      MOSUNNY   84  64  50 VRB3      30.11S
CROSSVILLE     PTSUNNY   78  65  63 CALM      30.16R
NASHVILLE      CLOUDY    78  65  63 S8        30.08R
$$

...KEY TO REMARKS...
VSB - VISIBILITY IN MILES
WCI - WIND CHILL INDEX
HX  - HEAT INDEX

$$



USA.gov is the U.S. government's official web portal to all federal, state and local government web resources and services.